STARLINK-37252, 68622

Orbit data source: Space-Track

STARLINK-37252, 68622 is a payload satellite owned by SpaceX/Seattle (US) in SSO that was launched on Sun, 05 Apr 2026 UTC via an FALCON 9 launch vehicle from the Air Force Western Test Range (AFWTR). Payload-class satellites include a variety of spacecraft equipped with specific instruments for various scientific and technological missions. These include communications satellites like Starlink; space stations such as the ISS; scientific satellites like the Hubble; Earth observation satellites from companies like Planet Labs, Umbra, and HawkEye 360; GPS; miniature CubeSats for education and research; and military/defense satellites.

Loading next visibility...
Identifier
68622, 2026-073W
Orbit
SSO
Country
Flag of USUS
Related business
Manufacturer
SpaceX/Seattle
Mission
Operational spacecraft
Bus & Motor
STARLINK V2MO, Unknown motor
Mass
575 kg wet, ~530 kg dry
Launch date (UTC)
2026-04-05 (3 months ago)
Launch vehicle
FALCON 9
Launch site
Air Force Western Test Range (AFWTR)
Object type
Payload
Rocket body
Debris
Shape & HBR
Unknown shape, 14.5 m
Radar Cross Section
Large (>1 m²)

Expand to show TLE details & history
Last TLE update: 11 hours ago

TLE from 11 hours ago
0 STARLINK-37252
1 68622U 26073W   26171.45762218  .00017015  00000-0  52777-3 0  9999
2 68622  97.2866  10.7548 0001712  82.8301 277.3136 15.33469928 11632
Epoch: 2026-06-20T10:58Z
TLE epoch observation values (Epoch: 2026-06-20T10:58:58.556Z)
Latitude
-0.00005°
Longitude
-62.66114°
Altitude
468.432 km
Speed
7.632 km/s
True Right ascension
00h 43m 01s
True Declination
0° 00' 00"
Sunlit
Object was in daylight at epoch
Visualization orbit readout
Latitude
Unknown
Longitude
Unknown
Altitude
Unknown
Speed
Unknown
Apparent Right ascension
Unknown
Apparent Declination
Unknown
Sunlit
N/A
Visualization observer readout
Local Sidereal Time
08:32:44
Azimuth
Unknown
Elevation
Unknown
Doppler factor
Unknown
Orbital elements
Apogee altitude
463.583 km
Perigee altitude
461.241 km
Semi-major axis
6,840.549 km
Eccentricity
0.00017
Inclination
97.2866°
RAAN
10.7548°
Arg. of periapsis
82.8301°
True anomaly
277.29414°
Mean anomaly
277.3136°
Eccentric anomaly
277.30387°
Mean motion
3.83625 °/min
Orbital period
93.84 mins
BSTAR
0.00052777
Loading maneuver chart data...
Computing Atmospheric mass density...
Loading historical data...
Loading historical data...
Loading historical data...
Loading historical data...
Loading historical data...
Loading historical data...
Loading historical data...

Documentation

Showing up to 5 results
|